| time (UTC) | temp C | wind direction | speed KPH | gust KPH | rain 1hr cm | rain 24hr cm | rain mn cm | humidity % | barometer mb |
| 20260506144547 | 25 | 359 | 3.2 | 3.2 | 0.00 | 0.00 | 0.00 | 36 | 1003.2 |
| 20260506143547 | 25 | 99 | 0.0 | 8.0 | 0.00 | 0.00 | 0.00 | 35 | 1003.5 |
| 20260506142547 | 26 | 60 | 0.0 | 3.2 | 0.00 | 0.00 | 0.00 | 33 | 1003.3 |
| 20260506141547 | 26 | 289 | 0.0 | 1.6 | 0.00 | 0.00 | 0.00 | 34 | 1003.3 |
| 20260506140547 | 26 | 212 | 0.0 | 3.2 | 0.00 | 0.00 | 0.00 | 34 | 1003.6 |
| 20260506135547 | 26 | 53 | 1.6 | 3.2 | 0.00 | 0.00 | 0.00 | 34 | 1003.3 |
| 20260506134547 | 26 | 284 | 0.0 | 1.6 | 0.00 | 0.00 | 0.00 | 35 | 1003.3 |
| 20260506133547 | 26 | 56 | 1.6 | 4.8 | 0.00 | 0.00 | 0.00 | 35 | 1003.4 |
| 20260506132547 | 26 | 54 | 3.2 | 3.2 | 0.00 | 0.00 | 0.00 | 34 | 1003.7 |
| 20260506131547 | 26 | 314 | 0.0 | 3.2 | 0.00 | 0.00 | 0.00 | 35 | 1003.6 |
| 20260506130547 | 26 | 209 | 0.0 | 3.2 | 0.00 | 0.00 | 0.00 | 35 | 1003.7 |
| 20260506125547 | 26 | 206 | 6.4 | 6.4 | 0.00 | 0.00 | 0.00 | 34 | 1003.7 |
| 20260506124547 | 27 | 355 | 0.0 | 3.2 | 0.00 | 0.00 | 0.00 | 35 | 1003.7 |
| 20260506123547 | 26 | 323 | 0.0 | 4.8 | 0.00 | 0.00 | 0.00 | 33 | 1003.9 |
| 20260506122547 | 27 | 126 | 0.0 | 1.6 | 0.00 | 0.00 | 0.00 | 34 | 1003.7 |
| 20260506121547 | 26 | 198 | 1.6 | 3.2 | 0.00 | 0.00 | 0.00 | 35 | 1004.1 |
| 20260506120547 | 25 | 59 | 0.0 | 3.2 | 0.00 | 0.00 | 0.00 | 36 | 1004.1 |
| 20260506115547 | 26 | 133 | 4.8 | 4.8 | 0.00 | 0.00 | 0.00 | 35 | 1004.3 |
| 20260506114547 | 26 | 227 | 0.0 | 3.2 | 0.00 | 0.00 | 0.00 | 33 | 1004.3 |
| 20260506113547 | 26 | 278 | 1.6 | 6.4 | 0.00 | 0.00 | 0.00 | 34 | 1004.6 |
| 20260506112547 | 26 | 318 | 1.6 | 3.2 | 0.00 | 0.00 | 0.00 | 35 | 1004.4 |
| 20260506111547 | 25 | 106 | 0.0 | 4.8 | 0.00 | 0.00 | 0.00 | 36 | 1004.4 |
| 20260506110547 | 26 | 315 | 0.0 | 4.8 | 0.00 | 0.00 | 0.00 | 35 | 1004.7 |
| 20260506105547 | 26 | 85 | 0.0 | 3.2 | 0.00 | 0.00 | 0.00 | 35 | 1004.6 |
| 20260506104547 | 25 | 55 | 0.0 | 3.2 | 0.00 | 0.00 | 0.00 | 35 | 1004.5 |
| 20260506103547 | 25 | 249 | 0.0 | 1.6 | 0.00 | 0.00 | 0.00 | 37 | 1004.6 |
| 20260506102547 | 25 | 325 | 0.0 | 3.2 | 0.00 | 0.00 | 0.00 | 37 | 1004.8 |
| 20260506101547 | 25 | 183 | 0.0 | 3.2 | 0.00 | 0.00 | 0.00 | 37 | 1004.7 |
| 20260506100547 | 25 | 118 | 1.6 | 4.8 | 0.00 | 0.00 | 0.00 | 35 | 1004.8 |
| 20260506095547 | 25 | 315 | 0.0 | 3.2 | 0.00 | 0.00 | 0.00 | 35 | 1004.8 |
| 20260506094547 | 25 | 320 | 3.2 | 3.2 | 0.00 | 0.00 | 0.00 | 35 | 1004.9 |
| 20260506093547 | 24 | 236 | 0.0 | 3.2 | 0.00 | 0.00 | 0.00 | 35 | 1005.0 |
| 20260506092547 | 24 | 39 | 1.6 | 3.2 | 0.00 | 0.00 | 0.00 | 36 | 1005.0 |
| 20260506091547 | 24 | 69 | 1.6 | 4.8 | 0.00 | 0.00 | 0.00 | 35 | 1005.1 |
| 20260506090547 | 24 | 190 | 0.0 | 4.8 | 0.00 | 0.00 | 0.00 | 35 | 1005.1 |
| 20260506085547 | 24 | 339 | 0.0 | 3.2 | 0.00 | 0.00 | 0.00 | 37 | 1004.8 |
| 20260506084547 | 23 | 75 | 0.0 | 3.2 | 0.00 | 0.00 | 0.00 | 35 | 1005.0 |
| 20260506083547 | 23 | 252 | 0.0 | 4.8 | 0.00 | 0.00 | 0.00 | 34 | 1005.0 |
| 20260506082547 | 23 | 158 | 0.0 | 3.2 | 0.00 | 0.00 | 0.00 | 37 | 1005.0 |
| 20260506081547 | 23 | 195 | 0.0 | 3.2 | 0.00 | 0.00 | 0.00 | 36 | 1005.1 |
| 20260506080547 | 22 | 302 | 0.0 | 3.2 | 0.00 | 0.00 | 0.00 | 41 | 1005.2 |
| 20260506072547 | 21 | 44 | 0.0 | 4.8 | 0.00 | 0.00 | 0.00 | 45 | 1005.0 |
| 20260506071547 | 20 | 309 | 0.0 | 3.2 | 0.00 | 0.00 | 0.00 | 48 | 1004.9 |
| 20260506070547 | 20 | 243 | 0.0 | 1.6 | 0.00 | 0.00 | 0.00 | 50 | 1005.0 |
| 20260506061547 | 17 | 0 | 0.0 | 1.6 | 0.00 | 0.00 | 0.00 | 53 | 1005.0 |
| 20260506060547 | 16 | 24 | 1.6 | 3.2 | 0.00 | 0.00 | 0.00 | 54 | 1005.0 |
| 20260506050547 | 12 | 11 | 3.2 | 4.8 | 0.00 | 0.00 | 0.00 | 67 | 1005.0 |
| 20260506044547 | 12 | 4 | 3.2 | 4.8 | 0.00 | 0.00 | 0.00 | 68 | 1005.0 |
| 20260506043547 | 12 | 65 | 0.0 | 4.8 | 0.00 | 0.00 | 0.00 | 70 | 1004.6 |
| 20260506042547 | 11 | 347 | 3.2 | 4.8 | 0.00 | 0.00 | 0.00 | 70 | 1004.7 |
| 20260506041547 | 11 | 8 | 3.2 | 8.0 | 0.00 | 0.00 | 0.00 | 72 | 1004.8 |
| 20260506040547 | 10 | 285 | 0.0 | 6.4 | 0.00 | 0.00 | 0.00 | 75 | 1004.5 |
| 20260506035547 | 10 | 88 | 4.8 | 6.4 | 0.00 | 0.00 | 0.00 | 78 | 1004.4 |
| 20260506034547 | 9 | 342 | 4.8 | 4.8 | 0.00 | 0.00 | 0.00 | 83 | 1004.5 |
| 20260506033547 | 9 | 313 | 1.6 | 4.8 | 0.00 | 0.00 | 0.00 | 85 | 1004.4 |
| 20260506032547 | 9 | 23 | 3.2 | 6.4 | 0.00 | 0.00 | 0.00 | 85 | 1004.4 |
| 20260506031547 | 9 | 339 | 6.4 | 6.4 | 0.00 | 0.00 | 0.00 | 83 | 1004.4 |
| 20260506030547 | 10 | 342 | 3.2 | 8.0 | 0.00 | 0.00 | 0.00 | 83 | 1004.3 |
| 20260506025547 | 10 | 358 | 1.6 | 4.8 | 0.00 | 0.00 | 0.00 | 81 | 1004.3 |
| 20260506024547 | 10 | 328 | 3.2 | 8.0 | 0.00 | 0.00 | 0.00 | 80 | 1004.1 |
| 20260506023547 | 10 | 355 | 4.8 | 8.0 | 0.00 | 0.00 | 0.00 | 78 | 1004.1 |
| 20260506022547 | 10 | 12 | 0.0 | 6.4 | 0.00 | 0.00 | 0.00 | 77 | 1004.0 |
| 20260506021547 | 10 | 169 | 0.0 | 8.0 | 0.00 | 0.00 | 0.00 | 76 | 1004.1 |
| 20260506020547 | 11 | 42 | 1.6 | 8.0 | 0.00 | 0.00 | 0.00 | 76 | 1004.1 |
| 20260506015547 | 11 | 222 | 3.2 | 8.0 | 0.00 | 0.00 | 0.00 | 75 | 1003.9 |
| 20260506014547 | 11 | 44 | 3.2 | 4.8 | 0.00 | 0.00 | 0.00 | 74 | 1004.2 |
| 20260506013548 | 11 | 25 | 6.4 | 9.7 | 0.00 | 0.00 | 0.00 | 74 | 1004.0 |
| 20260506012547 | 11 | 200 | 3.2 | 6.4 | 0.00 | 0.00 | 0.00 | 73 | 1004.1 |
| 20260506011548 | 11 | 115 | 4.8 | 6.4 | 0.00 | 0.00 | 0.00 | 74 | 1004.2 |
| 20260506010547 | 11 | 91 | 6.4 | 6.4 | 0.00 | 0.00 | 0.00 | 74 | 1003.9 |
| 20260506005547 | 12 | 147 | 3.2 | 6.4 | 0.00 | 0.00 | 0.00 | 74 | 1004.1 |
| 20260506004547 | 12 | 92 | 4.8 | 8.0 | 0.00 | 0.00 | 0.00 | 74 | 1004.0 |
| 20260506003547 | 12 | 49 | 1.6 | 4.8 | 0.00 | 0.00 | 0.00 | 74 | 1003.9 |
| 20260506002547 | 12 | 346 | 3.2 | 9.7 | 0.00 | 0.00 | 0.00 | 72 | 1004.0 |
| 20260506001547 | 13 | 178 | 1.6 | 6.4 | 0.00 | 0.00 | 0.00 | 71 | 1003.9 |
| 20260506000547 | 13 | 12 | 1.6 | 4.8 | 0.00 | 0.00 | 0.00 | 70 | 1003.9 |
| 20260505235547 | 13 | 137 | 1.6 | 6.4 | 0.00 | 0.00 | 0.00 | 70 | 1003.8 |
| 20260505234547 | 13 | 142 | 0.0 | 0.0 | 0.00 | 0.00 | 0.00 | 68 | 1003.6 |
| 20260505233547 | 13 | 44 | 0.0 | 0.0 | 0.00 | 0.00 | 0.00 | 68 | 1003.7 |
| 20260505232547 | 13 | 81 | 0.0 | 0.0 | 0.00 | 0.00 | 0.00 | 68 | 1003.8 |
| 20260505231547 | 13 | 142 | 0.0 | 3.2 | 0.00 | 0.00 | 0.00 | 73 | 1003.6 |
| 20260505230547 | 13 | 44 | 0.0 | 0.0 | 0.00 | 0.00 | 0.00 | 79 | 1004.1 |
| 20260505225547 | 13 | 333 | 0.0 | 0.0 | 0.00 | 0.00 | 0.00 | 78 | 1003.8 |
| 20260505224547 | 13 | 44 | 0.0 | 0.0 | 0.00 | 0.00 | 0.00 | 74 | 1003.9 |
| 20260505223547 | 13 | 44 | 0.0 | 0.0 | 0.00 | 0.00 | 0.00 | 75 | 1003.9 |
| 20260505222547 | 14 | 212 | 0.0 | 0.0 | 0.00 | 0.00 | 0.00 | 70 | 1003.9 |
| 20260505221547 | 14 | 37 | 0.0 | 0.0 | 0.00 | 0.00 | 0.00 | 69 | 1004.1 |
| 20260505220547 | 14 | 230 | 0.0 | 0.0 | 0.00 | 0.00 | 0.00 | 68 | 1003.9 |
| 20260505215547 | 15 | 343 | 0.0 | 0.0 | 0.00 | 0.00 | 0.00 | 61 | 1004.0 |
| 20260505214547 | 15 | 142 | 0.0 | 0.0 | 0.00 | 0.00 | 0.00 | 58 | 1003.9 |
| 20260505213547 | 15 | 29 | 0.0 | 0.0 | 0.00 | 0.00 | 0.00 | 58 | 1003.8 |
| 20260505212547 | 15 | 325 | 0.0 | 1.6 | 0.00 | 0.00 | 0.00 | 60 | 1003.8 |
| 20260505211547 | 15 | 124 | 0.0 | 0.0 | 0.00 | 0.00 | 0.00 | 65 | 1003.9 |
| 20260505210547 | 15 | 44 | 0.0 | 0.0 | 0.00 | 0.00 | 0.00 | 66 | 1003.8 |
| 20260505205547 | 15 | 219 | 0.0 | 0.0 | 0.00 | 0.00 | 0.00 | 67 | 1003.9 |
| 20260505204547 | 15 | 297 | 0.0 | 0.0 | 0.00 | 0.00 | 0.00 | 68 | 1003.7 |
| 20260505203547 | 15 | 44 | 0.0 | 0.0 | 0.00 | 0.00 | 0.00 | 66 | 1004.0 |
| 20260505202547 | 16 | 44 | 0.0 | 0.0 | 0.00 | 0.00 | 0.00 | 64 | 1003.8 |
| 20260505201547 | 16 | 62 | 0.0 | 0.0 | 0.00 | 0.00 | 0.00 | 62 | 1003.7 |
| 20260505200547 | 16 | 44 | 0.0 | 0.0 | 0.00 | 0.00 | 0.00 | 58 | 1003.7 |
| 20260505195547 | 17 | 129 | 0.0 | 0.0 | 0.00 | 0.00 | 0.00 | 55 | 1003.8 |
| 20260505194547 | 18 | 230 | 0.0 | 0.0 | 0.00 | 0.00 | 0.00 | 51 | 1003.8 |
| 20260505193547 | 17 | 315 | 0.0 | 1.6 | 0.00 | 0.00 | 0.00 | 51 | 1003.8 |
| 20260505192547 | 18 | 53 | 0.0 | 0.0 | 0.00 | 0.00 | 0.00 | 51 | 1003.5 |
| 20260505191547 | 18 | 135 | 0.0 | 0.0 | 0.00 | 0.00 | 0.00 | 50 | 1003.5 |
| 20260505190547 | 18 | 25 | 0.0 | 1.6 | 0.00 | 0.00 | 0.00 | 52 | 1003.8 |
| 20260505185547 | 18 | 315 | 0.0 | 0.0 | 0.00 | 0.00 | 0.00 | 52 | 1003.6 |
| 20260505184547 | 18 | 230 | 0.0 | 0.0 | 0.00 | 0.00 | 0.00 | 51 | 1003.7 |
| 20260505183547 | 18 | 110 | 0.0 | 0.0 | 0.00 | 0.00 | 0.00 | 52 | 1003.5 |
| 20260505182547 | 18 | 44 | 0.0 | 0.0 | 0.00 | 0.00 | 0.00 | 53 | 1003.6 |
| 20260505181547 | 18 | 264 | 0.0 | 0.0 | 0.00 | 0.00 | 0.00 | 53 | 1003.6 |
| 20260505180547 | 18 | 315 | 0.0 | 0.0 | 0.00 | 0.00 | 0.00 | 55 | 1003.5 |
| 20260505175547 | 18 | 255 | 0.0 | 0.0 | 0.00 | 0.00 | 0.00 | 56 | 1003.3 |
| 20260505174547 | 18 | 315 | 0.0 | 0.0 | 0.00 | 0.00 | 0.00 | 54 | 1003.3 |
| 20260505173547 | 19 | 44 | 0.0 | 0.0 | 0.00 | 0.00 | 0.00 | 53 | 1003.3 |
| 20260505172547 | 19 | 44 | 0.0 | 0.0 | 0.00 | 0.00 | 0.00 | 52 | 1003.1 |
| 20260505171547 | 20 | 229 | 0.0 | 0.0 | 0.00 | 0.00 | 0.00 | 52 | 1003.3 |
| 20260505170547 | 20 | 242 | 0.0 | 0.0 | 0.00 | 0.00 | 0.00 | 51 | 1003.2 |
| 20260505165547 | 20 | 135 | 0.0 | 0.0 | 0.00 | 0.00 | 0.00 | 51 | 1003.0 |
| 20260505164547 | 21 | 135 | 0.0 | 0.0 | 0.00 | 0.00 | 0.00 | 50 | 1003.3 |
| 20260505163547 | 21 | 326 | 0.0 | 0.0 | 0.00 | 0.00 | 0.00 | 49 | 1002.9 |
| 20260505162547 | 21 | 102 | 0.0 | 1.6 | 0.00 | 0.00 | 0.00 | 51 | 1003.1 |
| 20260505161547 | 21 | 135 | 0.0 | 0.0 | 0.00 | 0.00 | 0.00 | 50 | 1003.1 |
| 20260505160547 | 21 | 62 | 0.0 | 0.0 | 0.00 | 0.00 | 0.00 | 48 | 1003.2 |
| 20260505152547 | 22 | 55 | 0.0 | 1.6 | 0.00 | 0.00 | 0.00 | 44 | 1003.1 |
| 20260505151547 | 23 | 131 | 0.0 | 3.2 | 0.00 | 0.00 | 0.00 | 43 | 1003.4 |
| 20260505150547 | 23 | 111 | 0.0 | 3.2 | 0.00 | 0.00 | 0.00 | 42 | 1003.5 |